Location: Doughton Park
(36.4224°N, 81.1835°W)
Time: 09:42:00
(UTC-04:00)

Amateur Radio Satellites - All Passes

Search period start: 25 March 2017 09:12
Search period end: 26 March 2017 09:12
Location: Doughton Park, 36.4224°N, 81.1835°W

Satellite Date Start Highest point End Downlink Frequencies (MHz)
Time Altitude Azimuth
BEESAT 3 25 Mar 09:15:09 09:19:01 48° 244° (WSW) 09:22:51 437.485
PCSat 25 Mar 09:25:46 09:28:53 16° 104° (ESE) 09:32:01 145.827
UWE-3 25 Mar 09:25:51 09:29:57 42° 98° (E) 09:33:56 435.000/436.395/437.385
BEESAT 2 25 Mar 09:26:59 09:31:03 82° 57° (ENE) 09:35:04 435.950
STRAND 1 25 Mar 09:29:49 09:32:16 13° 268° (W) 09:34:44 437.568
XW-2A 25 Mar 09:39:07 09:41:20 17° 290° (WNW) 09:43:32 145.665 - 145.685
JUGNU 25 Mar 09:52:34 09:55:34 14° 174° (S) 09:58:35 437.505
CUBEBUG 2 25 Mar 09:56:09 10:00:24 47° 286° (WNW) 10:04:29 437.445
YUBILEINY 25 Mar 09:58:41 10:06:33 36° 286° (WNW) 10:14:26 435.215
Oscar 11 25 Mar 10:05:31 10:09:44 54° 100° (E) 10:13:56 .
ZACube-1 25 Mar 10:10:05 10:14:20 82° 99° (E) 10:18:29 437.345
DELFI C3 25 Mar 10:14:15 10:17:00 18° 94° (E) 10:19:45 145.870
AAUSAT CUBESAT 2 25 Mar 10:15:15 10:19:05 37° 287° (WNW) 10:22:55 437.432
SEEDS 25 Mar 10:27:32 10:29:47 14° 293° (WNW) 10:32:02 437.485
PRISM 25 Mar 10:31:09 10:35:08 60° 259° (W) 10:39:10 437.425
HO-68 25 Mar 10:34:29 10:40:03 25° 298° (WNW) 10:45:37 435.675
FO-29 25 Mar 10:37:28 10:45:00 52° 71° (ENE) 10:52:11 435.910
AO-73 25 Mar 10:39:35 10:43:39 47° 286° (WNW) 10:47:37 145.935
TIGRISAT 25 Mar 10:41:22 10:46:02 72° 76° (ENE) 10:50:42 435.000
UNISAT 6 25 Mar 10:51:02 10:55:44 83° 257° (WSW) 11:00:26 437.425
UWE-3 25 Mar 11:03:40 11:05:59 14° 294° (WNW) 11:08:16 435.000/436.395/437.385
PCSat 25 Mar 11:06:22 11:11:42 60° 299° (WNW) 11:17:05 145.827
NANOSAT C BR1 25 Mar 11:37:16 11:40:28 21° 69° (ENE) 11:43:40 145.865
JUGNU 25 Mar 11:40:33 11:43:46 15° 184° (S) 11:47:01 437.505
EO-79 25 Mar 11:40:34 11:44:03 25° 70° (ENE) 11:47:32 145.935-145.965
Oscar 11 25 Mar 11:43:46 11:45:22 12° 295° (WNW) 11:46:58 .
DELFI C3 25 Mar 11:48:21 11:51:46 28° 288° (WNW) 11:55:12 145.870
SRMSAT 25 Mar 11:53:07 11:55:43 13° 170° (S) 11:58:18 437.500
AIST 2D 25 Mar 12:07:01 12:10:34 83° 260° (W) 12:14:08 435.315
POLYITAN 1 25 Mar 12:07:27 12:11:37 52° 74° (ENE) 12:15:47 437.675
ESTCUBE 1 25 Mar 12:10:57 12:14:44 26° 96° (E) 12:18:29 437.505/2401.250
QB50P2 25 Mar 12:11:55 12:16:09 64° 75° (ENE) 12:20:24 145.880/145.840
LO-87 25 Mar 12:14:55 12:18:32 60° 100° (E) 12:22:07 145.935 - 145.965
FO-29 25 Mar 12:23:20 12:30:03 31° 265° (W) 12:36:36 435.910
DUCHIFAT 1 25 Mar 12:26:20 12:30:34 72° 76° (ENE) 12:34:48 145.980
BUGSAT 1 25 Mar 12:48:31 12:52:26 40° 73° (ENE) 12:56:25 437.445
SPROUT 25 Mar 12:49:22 12:52:07 17° 94° (E) 12:54:51 437.525
Oscar 19 25 Mar 12:51:54 12:54:49 16° 64° (ENE) 12:57:44 437.125/150
NANOSAT C BR1 25 Mar 13:12:17 13:15:58 28° 263° (W) 13:19:42 145.865
RS-15 25 Mar 13:12:30 13:24:01 60° 111° (ESE) 13:35:59 29.354- 29.394
DX 1 25 Mar 13:12:40 13:14:54 14° 93° (E) 13:17:07 434.975-435.025
EO-79 25 Mar 13:16:14 13:19:42 24° 264° (W) 13:23:11 145.935-145.965
50 SAT 25 Mar 13:18:51 13:21:43 23° 97° (E) 13:24:34 437.505
VELOX 1 25 Mar 13:29:11 13:33:36 57° 101° (E) 13:37:59 145.980
SRMSAT 25 Mar 13:40:38 13:44:05 16° 181° (S) 13:47:32 437.500
POLYITAN 1 25 Mar 13:46:15 13:47:39 11° 268° (W) 13:49:03 437.675
ESTCUBE 1 25 Mar 13:47:43 13:51:25 26° 290° (WNW) 13:55:07 437.505/2401.250
UKube-1 25 Mar 13:54:16 13:58:02 29° 97° (E) 14:01:47 .
AO-7 25 Mar 14:10:31 14:15:09 16° 52° (NE) 14:19:45 .
SPROUT 25 Mar 14:24:12 14:28:07 35° 288° (WNW) 14:32:00 437.525
SO-50 25 Mar 14:25:32 14:27:00 11° 107° (ESE) 14:28:28 436.795
BUGSAT 1 25 Mar 14:25:36 14:27:56 14° 267° (W) 14:30:18 437.445
Oscar 19 25 Mar 14:28:35 14:33:36 58° 259° (WSW) 14:38:39 437.125/150
Gurwin Techsat 1B 25 Mar 14:31:53 14:37:12 83° 74° (ENE) 14:42:33 435.225
ITAMSAT 1 25 Mar 14:36:01 14:38:47 15° 63° (ENE) 14:41:33 435.822/435.867
DX 1 25 Mar 14:47:05 14:51:17 45° 287° (WNW) 14:55:27 434.975-435.025
50 SAT 25 Mar 14:52:18 14:54:34 16° 290° (WNW) 14:56:51 437.505
NO-84 25 Mar 15:01:54 15:04:55 34° 42° (NE) 15:08:10 435.350 FM
BEESAT 25 Mar 15:06:32 15:08:28 12° 92° (E) 15:10:24 436.000
VELOX 1 25 Mar 15:07:44 15:09:31 12° 296° (WNW) 15:11:19 145.980
ITUPSAT 1 25 Mar 15:20:45 15:23:58 18° 94° (E) 15:27:09 437.325
RS-15 25 Mar 15:25:47 15:37:01 43° 314° (NW) 15:48:37 29.354- 29.394
SRMSAT 25 Mar 15:30:14 15:32:27 12° 191° (S) 15:34:39 437.500
UKube-1 25 Mar 15:30:34 15:33:52 22° 292° (WNW) 15:37:10 .
AO-7 25 Mar 15:58:17 16:06:36 79° 70° (ENE) 16:14:56 .
SO-50 25 Mar 16:02:15 16:06:54 67° 301° (WNW) 16:11:30 436.795
ITAMSAT 1 25 Mar 16:12:28 16:17:39 65° 259° (WSW) 16:22:52 435.822/435.867
NO-84 25 Mar 16:39:52 16:42:20 19° 234° (SW) 16:44:59 435.350 FM
BEESAT 25 Mar 16:41:54 16:46:33 58° 287° (WNW) 16:51:12 436.000
ITUPSAT 1 25 Mar 16:57:28 17:01:55 40° 289° (WNW) 17:06:20 437.325
KKS-1 25 Mar 17:01:05 17:04:06 18° 94° (E) 17:07:06 437.445
O/OREOS (USA 219) 25 Mar 17:05:52 17:09:32 25° 102° (ESE) 17:13:13 437.305
MOZHAYETS 4 25 Mar 17:09:46 17:14:18 69° 285° (WNW) 17:18:49
STARS 25 Mar 17:40:25 17:43:44 20° 95° (E) 17:47:00 437.465
RS-15 25 Mar 17:46:52 17:54:18 17° 346° (NNW) 18:01:47 29.354- 29.394
DOVE 4 25 Mar 17:50:32 17:54:13 24° 68° (ENE) 17:58:05 437.250
AO-7 25 Mar 17:54:33 18:00:03 19° 267° (W) 18:05:35 .
CUTE-I 25 Mar 17:54:46 17:58:48 22° 66° (ENE) 18:02:50 437.470
CUBESAT XI-V 25 Mar 17:58:35 18:03:12 62° 101° (E) 18:07:49 437.345
XW-2D 25 Mar 18:01:04 18:03:47 19° 70° (ENE) 18:06:30 145.860 - 145.880
NUDT-PHONESAT 25 Mar 18:05:14 18:07:35 16° 69° (ENE) 18:09:57 437.300
XW-2B 25 Mar 18:06:44 18:09:39 21° 71° (ENE) 18:12:35 145.730 - 145.750
KAITUO 1B 25 Mar 18:10:40 18:13:21 19° 70° (ENE) 18:16:02 145.475/437.950
YUBILEINY 25 Mar 18:16:04 18:21:39 18° 66° (ENE) 18:27:11 435.215
XW-2C 25 Mar 18:16:25 18:19:43 28° 72° (ENE) 18:23:02 145.795 - 145.815
KKS-1 25 Mar 18:36:37 18:40:45 37° 288° (WNW) 18:44:50 437.445
O/OREOS (USA 219) 25 Mar 18:44:57 18:48:48 27° 298° (WNW) 18:52:41 437.305
LilacSat-2 25 Mar 19:08:03 19:11:48 53° 260° (W) 19:15:33 437.200
XW-2F 25 Mar 19:08:43 19:12:27 56° 260° (W) 19:16:12 145.980 - 146.000
HO-68 25 Mar 19:12:05 19:18:18 34° 65° (ENE) 19:24:31 435.675
STARS 25 Mar 19:16:11 19:20:04 31° 289° (WNW) 19:23:56 437.465
DOVE 4 25 Mar 19:27:39 19:31:42 31° 265° (W) 19:35:59 437.250
CUTE-I 25 Mar 19:33:25 19:38:30 43° 261° (W) 19:43:37 437.470
XW-2D 25 Mar 19:34:39 19:37:48 24° 264° (W) 19:40:57 145.860 - 145.880
NUDT-PHONESAT 25 Mar 19:38:01 19:41:16 28° 263° (W) 19:44:32 437.300
CUBESAT XI-V 25 Mar 19:38:09 19:40:00 12° 296° (WNW) 19:41:52 437.345
SEEDS 25 Mar 19:40:14 19:43:21 21° 69° (ENE) 19:46:28 437.485
XW-2B 25 Mar 19:40:45 19:43:44 21° 265° (W) 19:46:42 145.730 - 145.750
KAITUO 1B 25 Mar 19:44:08 19:47:12 23° 264° (W) 19:50:15 145.475/437.950
CUTE 1.7 + AOD 2 25 Mar 19:44:09 19:48:00 36° 73° (ENE) 19:51:52 437.475
XW-2C 25 Mar 19:51:32 19:53:56 16° 266° (W) 19:56:21 145.795 - 145.815
PCSat 25 Mar 19:56:40 20:02:03 62° 61° (ENE) 20:07:25 145.827
M-CUBED/EXP-1 PRIME 25 Mar 19:58:30 20:03:10 87° 292° (WNW) 20:07:50 437.505
STRAND 1 25 Mar 20:01:20 20:05:32 25° 96° (E) 20:09:42 437.568
RS-15 25 Mar 20:05:19 20:13:53 21° 23° (NNE) 20:22:16 29.354- 29.394
XW-2A 25 Mar 20:06:33 20:09:59 81° 259° (W) 20:13:28 145.665 - 145.685
YUBILEINY 25 Mar 20:10:45 20:19:28 84° 265° (W) 20:28:11 435.215
UWE-3 25 Mar 20:19:59 20:23:55 28° 70° (ENE) 20:27:50 435.000/436.395/437.385
ISS 25 Mar 20:32:44 20:34:41 15° 128° (SE) 20:36:38 437.550
Tancredo 1 25 Mar 20:37:26 20:39:45 19° 130° (SE) 20:42:03 437.200
CUBEBUG 2 25 Mar 20:50:26 20:55:12 83° 256° (WSW) 20:59:58 437.445
Oscar 11 25 Mar 20:57:52 21:01:37 30° 71° (ENE) 21:05:22 .
HO-68 25 Mar 20:59:06 21:05:47 43° 261° (W) 21:12:31 435.675
AAUSAT CUBESAT 2 25 Mar 21:02:07 21:06:12 85° 255° (WSW) 21:10:19 437.432
ZACube-1 25 Mar 21:02:41 21:07:02 46° 74° (ENE) 21:11:22 437.345
SEEDS 25 Mar 21:15:20 21:18:51 27° 264° (W) 21:22:24 437.485
CUTE 1.7 + AOD 2 25 Mar 21:21:25 21:23:56 15° 267° (W) 21:26:27 437.475
AO-73 25 Mar 21:31:29 21:36:02 89° 98° (E) 21:40:33 145.935
STRAND 1 25 Mar 21:40:10 21:44:41 33° 291° (WNW) 21:49:11 437.568
PCSat 25 Mar 21:41:49 21:44:51 15° 256° (WSW) 21:47:52 145.827
AO-85 25 Mar 21:43:52 21:48:23 78° 119° (ESE) 21:52:35 145.980
UWE-3 25 Mar 21:56:23 22:00:15 26° 264° (W) 22:04:08 435.000/436.395/437.385
ISS 25 Mar 22:07:44 22:10:52 43° 323° (NW) 22:14:01 437.550
YUBILEINY 25 Mar 22:11:06 22:14:49 13° 283° (WNW) 22:18:33 435.215
Tancredo 1 25 Mar 22:12:47 22:15:42 33° 325° (NW) 22:18:38 437.200
PRISM 25 Mar 22:15:27 22:18:39 21° 96° (E) 22:21:51 437.425
RS-15 25 Mar 22:17:53 22:29:59 58° 53° (NE) 22:41:28 29.354- 29.394
DELFI C3 25 Mar 22:30:26 22:34:20 74° 260° (W) 22:38:16 145.870
Oscar 11 25 Mar 22:34:32 22:37:44 20° 266° (W) 22:40:56 .
TIGRISAT 25 Mar 22:36:48 22:39:42 17° 93° (E) 22:42:32 435.000
ZACube-1 25 Mar 22:40:59 22:43:29 15° 268° (W) 22:45:59 437.345
UNISAT 6 25 Mar 22:46:07 22:49:42 24° 95° (E) 22:53:11 437.425
LO-87 25 Mar 22:49:36 22:51:55 16° 69° (ENE) 22:54:14 145.935 - 145.965
BEESAT 3 25 Mar 23:02:17 23:06:02 48° 115° (ESE) 23:09:51 437.485
ESTCUBE 1 25 Mar 23:08:41 23:11:42 18° 67° (ENE) 23:14:45 437.505/2401.250
BEESAT 2 25 Mar 23:16:24 23:19:38 25° 112° (ESE) 23:22:55 435.950
AO-85 25 Mar 23:27:54 23:29:11 11° 314° (NW) 23:30:27 145.980
FO-29 25 Mar 23:36:10 23:41:52 47° 98° (E) 23:47:02 435.910
PRISM 25 Mar 23:50:23 23:53:53 26° 290° (WNW) 23:57:21 437.425
QB50P2 26 Mar 00:01:16 00:03:03 12° 92° (E) 00:04:50 145.880/145.840
TIGRISAT 26 Mar 00:12:28 00:16:29 35° 288° (WNW) 00:20:24 435.000
DUCHIFAT 1 26 Mar 00:14:33 00:16:37 13° 93° (E) 00:18:41 145.980
LO-87 26 Mar 00:22:10 00:25:09 25° 264° (W) 00:28:10 145.935 - 145.965
UNISAT 6 26 Mar 00:22:41 00:26:19 25° 290° (WNW) 00:29:52 437.425
VELOX 1 26 Mar 00:23:54 00:27:55 36° 71° (ENE) 00:31:58 145.980
RS-15 26 Mar 00:31:06 00:41:58 41° 254° (WSW) 00:52:23 29.354- 29.394
SO-50 26 Mar 00:35:59 00:40:22 51° 57° (ENE) 00:44:44 436.795
BEESAT 3 26 Mar 00:41:42 00:43:54 14° 312° (NW) 00:46:07 437.485
ESTCUBE 1 26 Mar 00:44:05 00:48:13 36° 262° (W) 00:52:22 437.505/2401.250
UKube-1 26 Mar 00:46:54 00:49:52 18° 67° (ENE) 00:52:50 .
BEESAT 2 26 Mar 00:54:04 00:57:19 24° 308° (NW) 01:00:38 435.950
NANOSAT C BR1 26 Mar 00:58:25 01:02:33 51° 100° (E) 01:06:38 145.865
EO-79 26 Mar 01:02:23 01:06:37 64° 102° (ESE) 01:10:46 145.935-145.965
AIST 2D 26 Mar 01:07:52 01:11:12 43° 285° (WNW) 01:14:31 435.315
SPROUT 26 Mar 01:14:13 01:18:29 67° 258° (WSW) 01:22:47 437.525
50 SAT 26 Mar 01:21:59 01:25:23 65° 259° (W) 01:28:50 437.505
FO-29 26 Mar 01:22:11 01:26:28 21° 298° (WNW) 01:30:27 435.910
POLYITAN 1 26 Mar 01:30:20 01:34:30 57° 285° (WNW) 01:38:36 437.675
QB50P2 26 Mar 01:35:00 01:39:03 46° 287° (WNW) 01:43:05 145.880/145.840
DX 1 26 Mar 01:39:30 01:43:49 75° 258° (WSW) 01:48:11 434.975-435.025
DUCHIFAT 1 26 Mar 01:48:29 01:52:28 42° 287° (WNW) 01:56:25 145.980
VELOX 1 26 Mar 02:01:33 02:04:28 17° 266° (W) 02:07:23 145.980
BUGSAT 1 26 Mar 02:07:39 02:11:50 82° 285° (WNW) 02:15:57 437.445
BEESAT 26 Mar 02:11:12 02:12:58 12° 63° (ENE) 02:14:43 436.000
SO-50 26 Mar 02:18:01 02:20:21 14° 252° (WSW) 02:22:41 436.795
UKube-1 26 Mar 02:21:43 02:25:37 34° 262° (W) 02:29:33 .
ITUPSAT 1 26 Mar 02:25:28 02:28:31 17° 65° (ENE) 02:31:33 437.325
NANOSAT C BR1 26 Mar 02:36:10 02:37:45 12° 295° (WNW) 02:39:21 145.865
Oscar 19 26 Mar 02:42:29 02:47:37 61° 101° (ESE) 02:52:43 437.125/150
Gurwin Techsat 1B 26 Mar 02:50:54 02:55:53 40° 98° (E) 03:00:51 435.225
ISS 26 Mar 03:02:20 03:03:43 12° 23° (NNE) 03:05:05 437.550
Tancredo 1 26 Mar 03:06:02 03:07:38 13° 25° (NNE) 03:09:13 437.200
O/OREOS (USA 219) 26 Mar 03:17:41 03:21:50 32° 64° (ENE) 03:25:58 437.305
BEESAT 26 Mar 03:45:22 03:50:07 68° 258° (WSW) 03:54:54 436.000
KKS-1 26 Mar 03:57:52 03:59:50 13° 64° (ENE) 04:01:48 437.445
ITUPSAT 1 26 Mar 04:01:20 04:05:55 46° 260° (W) 04:10:33 437.325
AO-7 26 Mar 04:03:32 04:10:34 30° 97° (E) 04:17:33 .
MOZHAYETS 4 26 Mar 04:08:37 04:13:13 83° 77° (ENE) 04:17:49
Oscar 19 26 Mar 04:23:30 04:26:22 15° 297° (WNW) 04:29:15 437.125/150
ITAMSAT 1 26 Mar 04:27:54 04:33:00 55° 101° (E) 04:38:03 435.822/435.867
Gurwin Techsat 1B 26 Mar 04:31:27 04:35:33 23° 294° (WNW) 04:39:38 435.225
STARS 26 Mar 04:35:31 04:37:53 14° 65° (ENE) 04:40:14 437.465
ISS 26 Mar 04:37:25 04:40:42 69° 40° (NE) 04:43:59 437.550
Tancredo 1 26 Mar 04:40:58 04:44:11 87° 43° (NE) 04:47:23 437.200
O/OREOS (USA 219) 26 Mar 04:57:33 05:00:59 21° 259° (W) 05:04:25 437.305
CUBESAT XI-V 26 Mar 04:59:16 05:03:36 43° 73° (ENE) 05:07:57 437.345
KKS-1 26 Mar 05:31:30 05:35:52 55° 259° (W) 05:40:16 437.445
AO-7 26 Mar 05:55:35 06:03:34 55° 294° (WNW) 06:11:33 .
ITAMSAT 1 26 Mar 06:08:44 06:11:58 17° 296° (WNW) 06:15:11 435.822/435.867
STARS 26 Mar 06:09:30 06:13:46 48° 260° (W) 06:18:04 437.465
AO-85 26 Mar 06:17:43 06:21:09 28° 54° (NE) 06:24:39 145.980
CUBESAT XI-V 26 Mar 06:38:28 06:41:09 15° 267° (W) 06:43:51 437.345
M-CUBED/EXP-1 PRIME 26 Mar 06:42:19 06:45:53 73° 71° (ENE) 06:49:48 437.505
XW-2F 26 Mar 06:44:24 06:46:46 16° 94° (E) 06:49:09 145.980 - 146.000
LilacSat-2 26 Mar 06:44:32 06:47:09 18° 95° (E) 06:49:46 437.200
XW-2D 26 Mar 07:09:04 07:12:33 36° 98° (E) 07:16:01 145.860 - 145.880
NUDT-PHONESAT 26 Mar 07:10:47 07:14:01 29° 97° (E) 07:17:14 437.300
YUBILEINY 26 Mar 07:14:29 07:20:47 23° 81° (E) 07:27:03 435.215
STRAND 1 26 Mar 07:14:41 07:19:05 29° 69° (ENE) 07:23:28 437.568
XW-2B 26 Mar 07:14:54 07:18:29 42° 99° (E) 07:22:02 145.730 - 145.750
KAITUO 1B 26 Mar 07:17:13 07:20:38 35° 98° (E) 07:24:02 145.475/437.950
BEESAT 3 26 Mar 07:22:23 07:24:43 15° 48° (NE) 07:27:02 437.485
XW-2C 26 Mar 07:24:57 07:28:41 60° 101° (E) 07:32:21 145.795 - 145.815
DOVE 4 26 Mar 07:27:57 07:33:18 88° 103° (ESE) 07:38:30 437.250
CUTE-I 26 Mar 07:52:41 07:58:04 88° 285° (WNW) 08:03:24 437.470
AO-7 26 Mar 07:53:40 07:54:29 10° 313° (NW) 07:55:18 .
NO-84 26 Mar 07:55:46 07:58:32 42° 317° (NW) 08:01:15 435.350 FM
AO-85 26 Mar 07:58:21 08:01:21 21° 248° (WSW) 08:04:26 145.980
XW-2F 26 Mar 08:17:46 08:20:56 26° 288° (WNW) 08:24:04 145.980 - 146.000
LilacSat-2 26 Mar 08:18:19 08:21:24 24° 289° (WNW) 08:24:29 437.200
HO-68 26 Mar 08:29:05 08:35:52 44° 100° (E) 08:42:37 435.675
XW-2D 26 Mar 08:44:44 08:46:22 12° 293° (WNW) 08:48:00 145.860 - 145.880
CUBEBUG 2 26 Mar 08:44:47 08:48:20 24° 95° (E) 08:51:47 437.445
NUDT-PHONESAT 26 Mar 08:45:33 08:47:40 15° 291° (WNW) 08:49:48 437.300
AAUSAT CUBESAT 2 26 Mar 08:47:37 08:50:25 17° 94° (E) 08:53:13 437.432
XW-2B 26 Mar 08:51:13 08:52:15 11° 293° (WNW) 08:53:18 145.730 - 145.750
KAITUO 1B 26 Mar 08:52:43 08:54:18 12° 293° (WNW) 08:55:54 145.475/437.950
STRAND 1 26 Mar 08:53:41 08:58:09 29° 263° (W) 09:02:37 437.568
PCSat 26 Mar 08:57:25 08:58:14 10° 102° (ESE) 08:59:04 145.827
BEESAT 3 26 Mar 08:58:42 09:02:35 48° 244° (WSW) 09:06:24 437.485
SEEDS 26 Mar 09:00:42 09:04:49 56° 100° (E) 09:08:56 437.485
XW-2A 26 Mar 09:03:41 09:06:58 49° 285° (WNW) 09:10:12 145.665 - 145.685
PRISM 26 Mar 09:04:16 09:05:30 11° 65° (ENE) 09:06:45 437.425
DOVE 4 26 Mar 09:08:47 09:10:07 11° 298° (WNW) 09:11:28 437.250
